Time,TemperatureF,DewpointF,PressureIn,WindDirection,WindDirectionDegrees,WindSpeedMPH,WindSpeedGustMPH,Humidity,HourlyPrecipIn,Conditions,Clouds,dailyrainin,SolarRadiationWatts/m^2,SoftwareType,DateUTC
2013-08-31 00:22:00,62.0,58.0,-100.00,NNE,16,1.0,3.0,88,0.00,,,0.00,0.000000,,2013-08-31 07:22:00,
2013-08-31 00:32:00,62.0,58.0,-100.00,NNE,16,1.0,3.0,88,0.00,,,0.00,0.000000,,2013-08-31 07:32:00,
2013-08-31 00:42:00,62.0,58.0,-100.00,NNE,16,1.0,3.0,88,0.00,,,0.00,0.000000,,2013-08-31 07:42:00,
2013-08-31 00:51:00,61.0,58.0,-100.00,NNE,21,2.0,3.0,89,0.00,,,0.00,0.000000,,2013-08-31 07:51:00,
2013-08-31 01:22:00,61.0,58.0,-100.00,NNE,21,2.0,3.0,89,0.00,,,0.00,0.000000,,2013-08-31 08:22:00,
2013-08-31 01:32:00,61.0,58.0,-100.00,NNE,21,2.0,3.0,89,0.00,,,0.00,0.000000,,2013-08-31 08:32:00,
2013-08-31 01:42:00,61.0,58.0,-100.00,NNE,21,2.0,3.0,89,0.00,,,0.00,0.000000,,2013-08-31 08:42:00,
2013-08-31 01:51:00,60.0,57.0,-100.00,North,351,2.0,3.0,90,0.00,,,0.00,0.000000,,2013-08-31 08:51:00,
2013-08-31 02:23:00,60.0,57.0,-100.00,North,351,2.0,3.0,90,0.00,,,0.00,0.000000,,2013-08-31 09:23:00,
2013-08-31 02:33:00,60.0,57.0,-100.00,North,351,2.0,3.0,90,0.00,,,0.00,0.000000,,2013-08-31 09:33:00,
2013-08-31 02:43:00,60.0,57.0,-100.00,North,351,2.0,3.0,90,0.00,,,0.00,0.000000,,2013-08-31 09:43:00,
2013-08-31 02:51:00,59.0,55.0,-100.00,NNE,21,2.0,5.0,87,0.00,,,0.00,0.000000,,2013-08-31 09:51:00,
2013-08-31 03:23:00,59.0,55.0,-100.00,NNE,21,2.0,5.0,87,0.00,,,0.00,0.000000,,2013-08-31 10:23:00,
2013-08-31 03:33:00,59.0,55.0,-100.00,NNE,21,2.0,5.0,87,0.00,,,0.00,0.000000,,2013-08-31 10:33:00,
2013-08-31 03:43:00,59.0,55.0,-100.00,NNE,21,2.0,5.0,87,0.00,,,0.00,0.000000,,2013-08-31 10:43:00,
2013-08-31 03:51:00,58.0,55.0,-100.00,North,359,3.0,4.0,89,0.00,,,-99.99,0.000000,,2013-08-31 10:51:00,
2013-08-31 04:21:00,58.0,55.0,-100.00,North,359,3.0,4.0,89,0.00,,,-99.99,0.000000,,2013-08-31 11:21:00,
2013-08-31 04:33:00,58.0,55.0,-100.00,North,359,3.0,4.0,89,0.00,,,-99.99,0.000000,,2013-08-31 11:33:00,
2013-08-31 04:42:00,58.0,55.0,-100.00,North,359,3.0,4.0,89,0.00,,,-99.99,0.000000,,2013-08-31 11:42:00,
2013-08-31 04:51:00,59.0,56.0,-100.00,North,350,3.0,4.0,90,0.00,,,0.00,0.000000,,2013-08-31 11:51:00,
2013-08-31 05:22:00,59.0,56.0,-100.00,North,350,3.0,4.0,90,0.00,,,0.00,0.000000,,2013-08-31 12:22:00,
2013-08-31 05:31:00,59.0,56.0,-100.00,North,350,3.0,4.0,90,0.00,,,0.00,0.000000,,2013-08-31 12:31:00,
2013-08-31 05:42:00,59.0,56.0,-100.00,North,350,3.0,4.0,90,0.00,,,0.00,0.000000,,2013-08-31 12:42:00,
2013-08-31 05:51:00,59.0,56.0,-100.00,East,95,1.0,3.0,89,0.00,,,0.00,0.000000,,2013-08-31 12:51:00,
2013-08-31 06:22:00,59.0,56.0,-100.00,East,95,1.0,3.0,89,0.00,,,0.00,0.000000,,2013-08-31 13:22:00,
2013-08-31 06:31:00,59.0,56.0,-100.00,East,95,1.0,3.0,89,0.00,,,0.00,0.000000,,2013-08-31 13:31:00,
2013-08-31 06:42:00,59.0,56.0,-100.00,East,95,1.0,3.0,89,0.00,,,0.00,0.000000,,2013-08-31 13:42:00,
2013-08-31 06:51:00,59.0,57.0,-100.00,NW,308,2.0,3.0,93,0.00,,,0.00,0.000000,,2013-08-31 13:51:00,
2013-08-31 07:22:00,59.0,57.0,-100.00,NW,308,2.0,3.0,93,0.00,,,0.00,0.000000,,2013-08-31 14:22:00,
2013-08-31 07:32:00,59.0,57.0,-100.00,NW,308,2.0,3.0,93,0.00,,,0.00,0.000000,,2013-08-31 14:32:00,
2013-08-31 07:42:00,59.0,57.0,-100.00,NW,308,2.0,3.0,93,0.00,,,0.00,0.000000,,2013-08-31 14:42:00,
2013-08-31 07:51:00,59.0,56.0,-100.00,WSW,237,1.0,3.0,91,0.00,,,0.00,18.000000,,2013-08-31 14:51:00,
2013-08-31 08:23:00,59.0,56.0,-100.00,WSW,237,1.0,3.0,91,0.00,,,0.00,18.000000,,2013-08-31 15:23:00,
2013-08-31 08:34:00,59.0,56.0,-100.00,WSW,237,1.0,3.0,91,0.00,,,0.00,18.000000,,2013-08-31 15:34:00,
2013-08-31 08:44:00,59.0,56.0,-100.00,WSW,237,1.0,3.0,91,0.00,,,0.00,18.000000,,2013-08-31 15:44:00,
2013-08-31 08:51:00,60.0,58.0,-100.00,NNE,23,2.0,4.0,92,0.00,,,0.00,65.000000,,2013-08-31 15:51:00,
2013-08-31 09:25:00,60.0,58.0,-100.00,NNE,23,2.0,4.0,92,0.00,,,0.00,65.000000,,2013-08-31 16:25:00,
2013-08-31 09:34:00,60.0,58.0,-100.00,NNE,23,2.0,4.0,92,0.00,,,0.00,65.000000,,2013-08-31 16:34:00,
2013-08-31 09:44:00,60.0,58.0,-100.00,NNE,23,2.0,4.0,92,0.00,,,0.00,65.000000,,2013-08-31 16:44:00,
2013-08-31 09:51:00,62.0,58.0,-100.00,SE,145,3.0,4.0,88,0.00,,,0.00,154.000000,,2013-08-31 16:51:00,
2013-08-31 10:23:00,62.0,58.0,-100.00,SE,145,3.0,4.0,88,0.00,,,0.00,154.000000,,2013-08-31 17:23:00,
2013-08-31 10:34:00,62.0,58.0,-100.00,SE,145,3.0,4.0,88,0.00,,,0.00,154.000000,,2013-08-31 17:34:00,
2013-08-31 10:42:00,62.0,58.0,-100.00,SE,145,3.0,4.0,88,0.00,,,0.00,154.000000,,2013-08-31 17:42:00,
2013-08-31 10:51:00,69.0,61.0,-100.00,SSE,164,4.0,7.0,77,0.00,,,0.00,400.000000,,2013-08-31 17:51:00,
2013-08-31 11:21:00,69.0,61.0,-100.00,SSE,164,4.0,7.0,77,0.00,,,0.00,400.000000,,2013-08-31 18:21:00,
2013-08-31 11:32:00,69.0,61.0,-100.00,SSE,164,4.0,7.0,77,0.00,,,0.00,400.000000,,2013-08-31 18:32:00,
2013-08-31 11:42:00,69.0,61.0,-100.00,SSE,164,4.0,7.0,77,0.00,,,0.00,400.000000,,2013-08-31 18:42:00,
2013-08-31 11:51:00,75.0,61.0,-100.00,NNE,14,3.0,9.0,62,0.00,,,0.00,722.000000,,2013-08-31 18:51:00,
2013-08-31 12:22:00,75.0,61.0,-100.00,NNE,14,3.0,9.0,62,0.00,,,0.00,722.000000,,2013-08-31 19:22:00,
2013-08-31 12:32:00,75.0,61.0,-100.00,NNE,14,3.0,9.0,62,0.00,,,0.00,722.000000,,2013-08-31 19:32:00,
2013-08-31 12:42:00,75.0,61.0,-100.00,NNE,14,3.0,9.0,62,0.00,,,0.00,722.000000,,2013-08-31 19:42:00,
2013-08-31 12:51:00,81.0,61.0,-100.00,NNE,20,4.0,9.0,50,0.00,,,0.00,823.000000,,2013-08-31 19:51:00,
2013-08-31 13:22:00,81.0,61.0,-100.00,NNE,20,4.0,9.0,50,0.00,,,0.00,823.000000,,2013-08-31 20:22:00,
2013-08-31 13:32:00,81.0,61.0,-100.00,NNE,20,4.0,9.0,50,0.00,,,0.00,823.000000,,2013-08-31 20:32:00,
2013-08-31 13:42:00,81.0,61.0,-100.00,NNE,20,4.0,9.0,50,0.00,,,0.00,823.000000,,2013-08-31 20:42:00,
2013-08-31 13:51:00,83.0,57.0,-100.00,North,3,5.0,9.0,41,0.00,,,0.00,846.000000,,2013-08-31 20:51:00,
2013-08-31 14:22:00,83.0,57.0,-100.00,North,3,5.0,9.0,41,0.00,,,0.00,846.000000,,2013-08-31 21:22:00,
2013-08-31 14:34:00,83.0,57.0,-100.00,North,3,5.0,9.0,41,0.00,,,0.00,846.000000,,2013-08-31 21:34:00,
2013-08-31 14:44:00,83.0,57.0,-100.00,North,3,5.0,9.0,41,0.00,,,0.00,846.000000,,2013-08-31 21:44:00,
2013-08-31 14:51:00,88.0,59.0,-100.00,North,9,4.0,8.0,38,0.00,,,0.00,811.000000,,2013-08-31 21:51:00,
2013-08-31 15:23:00,88.0,59.0,-100.00,North,9,4.0,8.0,38,0.00,,,0.00,811.000000,,2013-08-31 22:23:00,
2013-08-31 15:32:00,88.0,59.0,-100.00,North,9,4.0,8.0,38,0.00,,,0.00,811.000000,,2013-08-31 22:32:00,
2013-08-31 15:43:00,88.0,59.0,-100.00,North,9,4.0,8.0,38,0.00,,,0.00,811.000000,,2013-08-31 22:43:00,
2013-08-31 15:51:00,87.0,56.0,-100.00,North,7,5.0,10.0,35,0.00,,,0.00,725.000000,,2013-08-31 22:51:00,
2013-08-31 16:22:00,87.0,56.0,-100.00,North,7,5.0,10.0,35,0.00,,,0.00,725.000000,,2013-08-31 23:22:00,
2013-08-31 16:33:00,87.0,56.0,-100.00,North,7,5.0,10.0,35,0.00,,,0.00,725.000000,,2013-08-31 23:33:00,
2013-08-31 16:42:00,87.0,56.0,-100.00,North,7,5.0,10.0,35,0.00,,,0.00,725.000000,,2013-08-31 23:42:00,
2013-08-31 16:51:00,85.0,53.0,-100.00,NNE,17,3.0,7.0,34,0.00,,,0.00,390.000000,,2013-08-31 23:51:00,
2013-08-31 17:21:00,85.0,53.0,-100.00,NNE,17,3.0,7.0,34,0.00,,,0.00,390.000000,,2013-09-01 00:21:00,
2013-08-31 17:32:00,85.0,53.0,-100.00,NNE,17,3.0,7.0,34,0.00,,,0.00,390.000000,,2013-09-01 00:32:00,
2013-08-31 17:42:00,85.0,53.0,-100.00,NNE,17,3.0,7.0,34,0.00,,,0.00,390.000000,,2013-09-01 00:42:00,
2013-08-31 17:51:00,82.0,52.0,-100.00,North,354,3.0,7.0,36,0.00,,,0.00,55.000000,,2013-09-01 00:51:00,
2013-08-31 18:21:00,82.0,52.0,-100.00,North,354,3.0,7.0,36,0.00,,,0.00,55.000000,,2013-09-01 01:21:00,
2013-08-31 18:32:00,82.0,52.0,-100.00,North,354,3.0,7.0,36,0.00,,,0.00,55.000000,,2013-09-01 01:32:00,
2013-08-31 18:42:00,82.0,52.0,-100.00,North,354,3.0,7.0,36,0.00,,,0.00,55.000000,,2013-09-01 01:42:00,
2013-08-31 18:51:00,77.0,49.0,-100.00,NE,46,2.0,7.0,37,0.00,,,-99.99,22.000000,,2013-09-01 01:51:00,
2013-08-31 19:22:00,77.0,49.0,-100.00,NE,46,2.0,7.0,37,0.00,,,-99.99,22.000000,,2013-09-01 02:22:00,
2013-08-31 19:32:00,77.0,49.0,-100.00,NE,46,2.0,7.0,37,0.00,,,-99.99,22.000000,,2013-09-01 02:32:00,
2013-08-31 19:42:00,77.0,49.0,-100.00,NE,46,2.0,7.0,37,0.00,,,-99.99,22.000000,,2013-09-01 02:42:00,
2013-08-31 19:51:00,73.0,49.0,-100.00,NE,41,2.0,9.0,43,0.00,,,0.00,9.000000,,2013-09-01 02:51:00,
2013-08-31 20:23:00,73.0,49.0,-100.00,NE,41,2.0,9.0,43,0.00,,,0.00,9.000000,,2013-09-01 03:23:00,
2013-08-31 20:35:00,73.0,49.0,-100.00,NE,41,2.0,9.0,43,0.00,,,0.00,9.000000,,2013-09-01 03:35:00,
2013-08-31 20:44:00,73.0,49.0,-100.00,NE,41,2.0,9.0,43,0.00,,,0.00,9.000000,,2013-09-01 03:44:00,
2013-08-31 20:51:00,68.0,49.0,-100.00,NE,36,1.0,6.0,51,0.00,,,0.00,0.000000,,2013-09-01 03:51:00,
2013-08-31 21:24:00,68.0,49.0,-100.00,NE,36,1.0,6.0,51,0.00,,,0.00,0.000000,,2013-09-01 04:24:00,
2013-08-31 21:34:00,68.0,49.0,-100.00,NE,36,1.0,6.0,51,0.00,,,0.00,0.000000,,2013-09-01 04:34:00,
2013-08-31 21:43:00,68.0,49.0,-100.00,NE,36,1.0,6.0,51,0.00,,,0.00,0.000000,,2013-09-01 04:43:00,
2013-08-31 21:51:00,65.0,49.0,-100.00,NE,45,2.0,6.0,57,0.00,,,0.00,0.000000,,2013-09-01 04:51:00,
2013-08-31 22:23:00,65.0,49.0,-100.00,NE,45,2.0,6.0,57,0.00,,,0.00,0.000000,,2013-09-01 05:23:00,
2013-08-31 22:34:00,65.0,49.0,-100.00,NE,45,2.0,6.0,57,0.00,,,0.00,0.000000,,2013-09-01 05:34:00,
2013-08-31 22:43:00,65.0,49.0,-100.00,NE,45,2.0,6.0,57,0.00,,,0.00,0.000000,,2013-09-01 05:43:00,
2013-08-31 22:51:00,63.0,50.0,-100.00,NE,49,2.0,6.0,62,0.00,,,0.00,0.000000,,2013-09-01 05:51:00,
2013-08-31 23:22:00,63.0,50.0,-100.00,NE,49,2.0,6.0,62,0.00,,,0.00,0.000000,,2013-09-01 06:22:00,
2013-08-31 23:32:00,63.0,50.0,-100.00,NE,49,2.0,6.0,62,0.00,,,0.00,0.000000,,2013-09-01 06:32:00,
2013-08-31 23:42:00,63.0,50.0,-100.00,NE,49,2.0,6.0,62,0.00,,,0.00,0.000000,,2013-09-01 06:42:00,
2013-08-31 23:51:00,62.0,50.0,-100.00,North,352,4.0,6.0,65,0.00,,,0.00,0.000000,,2013-09-01 06:51:00,